TimePDT,TemperatureF,Dew PointF,Humidity,Sea Level PressureIn,VisibilityMPH,Wind Direction,Wind SpeedMPH,Gust SpeedMPH,PrecipitationIn,Events,Conditions,WindDirDegrees,DateUTC
12:50 AM,61.0,44.1,54,29.81,10.0,WNW,17.3,-,N/A,,Clear,290,2013-04-25 07:50:00
1:50 AM,57.9,44.1,60,29.81,10.0,WNW,9.2,-,N/A,,Clear,290,2013-04-25 08:50:00
2:50 AM,57.0,45.0,64,29.80,10.0,West,12.7,-,N/A,,Clear,280,2013-04-25 09:50:00
3:50 AM,55.9,44.1,64,29.80,10.0,West,11.5,-,N/A,,Clear,280,2013-04-25 10:50:00
4:50 AM,55.0,43.0,64,29.81,10.0,WNW,15.0,-,N/A,,Clear,290,2013-04-25 11:50:00
5:50 AM,54.0,43.0,66,29.83,10.0,West,11.5,-,N/A,,Clear,260,2013-04-25 12:50:00
6:50 AM,54.0,42.1,64,29.86,10.0,West,13.8,-,N/A,,Clear,270,2013-04-25 13:50:00
7:50 AM,59.0,42.1,53,29.88,10.0,West,16.1,-,N/A,,Clear,280,2013-04-25 14:50:00
8:50 AM,63.0,42.1,46,29.90,10.0,WNW,13.8,-,N/A,,Clear,290,2013-04-25 15:50:00
9:50 AM,66.9,43.0,42,29.91,10.0,WNW,13.8,-,N/A,,Clear,290,2013-04-25 16:50:00
10:50 AM,72.0,41.0,33,29.91,10.0,WNW,17.3,23.0,N/A,,Clear,290,2013-04-25 17:50:00
11:50 AM,75.0,39.9,28,29.90,10.0,WNW,13.8,-,N/A,,Clear,290,2013-04-25 18:50:00
12:50 PM,79.0,37.0,22,29.88,10.0,West,11.5,-,N/A,,Clear,270,2013-04-25 19:50:00
1:50 PM,82.0,28.9,14,29.87,10.0,West,10.4,16.1,N/A,,Clear,280,2013-04-25 20:50:00
2:50 PM,82.9,26.1,13,29.85,10.0,NW,6.9,-,N/A,,Clear,320,2013-04-25 21:50:00
3:50 PM,84.9,21.9,10,29.83,10.0,West,11.5,20.7,N/A,,Clear,270,2013-04-25 22:50:00
4:50 PM,86.0,19.0,8,29.82,10.0,West,15.0,21.9,N/A,,Clear,270,2013-04-25 23:50:00
5:50 PM,84.0,21.0,10,29.83,10.0,WNW,10.4,-,N/A,,Clear,300,2013-04-26 00:50:00
6:50 PM,81.0,30.9,16,29.84,10.0,West,24.2,-,N/A,,Clear,260,2013-04-26 01:50:00
7:50 PM,77.0,37.0,24,29.87,10.0,West,21.9,26.5,N/A,,Clear,260,2013-04-26 02:50:00
8:50 PM,73.9,37.9,27,29.91,10.0,WSW,20.7,-,N/A,,Clear,250,2013-04-26 03:50:00
9:50 PM,72.0,36.0,27,29.94,10.0,SW,18.4,-,N/A,,Clear,230,2013-04-26 04:50:00
10:50 PM,70.0,35.1,28,29.95,10.0,West,13.8,20.7,N/A,,Clear,260,2013-04-26 05:50:00
11:50 PM,69.1,34.0,27,29.96,10.0,WSW,17.3,25.3,N/A,,Clear,240,2013-04-26 06:50:00